GW5023 Weather Reports


time (UTC)temp
C
wind
direction
speed
KPH
gust
KPH
rain 1hr
cm
rain 24hr
cm
rain mn
cm
humidity
%
barometer
mb
20260505040025 10 103 0.0 3.2 0.00 0.00 0.00 87 1011.8
20260505034526 11 206 0.0 4.8 0.00 0.00 0.00 86 1011.7
20260505033035 11 57 1.6 6.4 0.00 0.00 0.00 86 1011.8
20260505031528 11 77 0.0 4.8 0.00 0.00 0.00 85 1011.9
20260505030028 11 84 1.6 4.8 0.00 0.00 0.00 85 1011.9
20260505024525 11 61 3.2 4.8 0.00 0.00 0.00 84 1011.8
20260505023028 12 69 0.0 4.8 0.00 0.00 0.00 83 1011.8
20260505021528 12 56 3.2 4.8 0.00 0.00 0.00 82 1011.6
20260505020022 12 118 0.0 4.8 0.00 0.00 0.00 81 1011.6
20260505014528 13 181 0.0 6.4 0.00 0.00 0.00 80 1011.6
20260505013030 13 89 1.6 3.2 0.00 0.00 0.00 81 1011.6
20260505011527 13 56 0.0 3.2 0.00 0.00 0.00 77 1011.6
20260505010020 14 67 0.0 3.2 0.00 0.00 0.00 77 1011.5
20260505004519 15 73 0.0 3.2 0.00 0.00 0.00 75 1011.4
20260505003010 15 352 0.0 3.2 0.00 0.00 0.00 75 1011.2
20260505001515 15 270 0.0 3.2 0.00 0.00 0.00 73 1011.2
20260505000021 16 244 0.0 3.2 0.00 0.00 0.00 68 1011.0
20260504234527 17 275 0.0 4.8 0.00 0.00 0.00 63 1010.9
20260504233009 18 9 0.0 3.2 0.00 0.00 0.00 61 1011.0
20260504231531 19 59 0.0 3.2 0.00 0.00 0.00 56 1011.1
20260504230017 19 28 1.6 3.2 0.00 0.00 0.00 54 1011.2
20260504224518 20 11 1.6 8.0 0.00 0.00 0.00 44 1011.3
20260504223019 20 49 3.2 4.8 0.00 0.00 0.00 45 1011.4
20260504221509 20 40 3.2 12.9 0.00 0.00 0.00 45 1011.5
20260504220016 20 265 1.6 11.3 0.00 0.00 0.00 47 1011.5
20260504214519 21 58 4.8 16.1 0.00 0.00 0.00 46 1011.4
20260504213023 20 232 1.6 22.5 0.00 0.00 0.00 45 1011.2
20260504211509 21 65 4.8 22.5 0.00 0.00 0.00 44 1011.6
20260504210016 21 231 3.2 17.7 0.00 0.00 0.00 44 1011.0
20260504204544 21 12 3.2 9.7 0.00 0.00 0.00 43 1010.9
20260504203027 21 335 4.8 24.1 0.00 0.00 0.00 41 1011.1
20260504201520 22 15 4.8 19.3 0.00 0.00 0.00 42 1011.0
20260504200016 22 294 4.8 12.9 0.00 0.00 0.00 44 1011.3
20260504194520 22 275 1.6 22.5 0.00 0.00 0.00 40 1011.2
20260504193024 22 36 6.4 14.5 0.00 0.00 0.00 38 1011.2
20260504191523 22 57 3.2 25.7 0.00 0.00 0.00 43 1011.1
20260504190025 22 321 4.8 14.5 0.00 0.00 0.00 42 1011.3
20260504184516 22 319 6.4 17.7 0.00 0.00 0.00 41 1011.5
20260504183022 21 81 11.3 20.9 0.00 0.00 0.00 41 1011.7
20260504181525 21 281 12.9 22.5 0.00 0.00 0.00 45 1012.2
20260504180025 21 44 11.3 19.3 0.00 0.00 0.00 44 1012.5
20260504174514 20 275 3.2 14.5 0.00 0.00 0.00 47 1012.5
20260504173020 19 13 3.2 9.7 0.00 0.00 0.00 46 1012.5
20260504171537 18 42 3.2 14.5 0.00 0.00 0.00 51 1013.0
20260504081529 6 41 1.6 3.2 0.00 0.00 0.00 90 1015.9
20260504044532 7 65 0.0 3.2 0.00 0.00 0.00 74 1016.6
20260504043027 7 57 0.0 3.2 0.00 0.00 0.00 72 1016.5
20260504041519 7 58 0.0 3.2 0.00 0.00 0.00 71 1016.4